Cloquet, MN

9:04 PM CST on December 10, 2019 (GMT -0600)
Cloquet Carlton County

Weather History for KCOQ - October, 2019

Change the Weather History Date:

Friday, October 18, 2019

  Actual Average Record
Temperature  
Mean Temperature 50 °F -  
Max Temperature 62 °F 49 °F 68 °F (2017)
Min Temperature 37 °F 33 °F 24 °F (2015)
Degree Days  
Heating Degree Days 16    
Moisture  
Dew Point 37 °F    
Average Humidity 67    
Maximum Humidity 93    
Minimum Humidity 39    
Precipitation  
Precipitation 0.00 in - - ()
Sea Level Pressure  
Sea Level Pressure 29.71 in    
Wind  
Wind Speed 7 mph ()    
Max Wind Speed 15 mph    
Max Gust Speed 24 mph    
Visibility 10.0 miles    
Events      
Averages and records for this station are not official NWS values.
T = Trace of Precipitation, MM = Missing Value Source: Averaged Metar Reports

Daily Weather History Graph

Daily Weather History Graph

Search for Another Location

Airport or City:

Astronomy

Oct. 18, 2019 Rise Set
Actual Time 7:31 AM CDT 6:17 PM CDT
Civil Twilight 7:00 AM CDT 6:48 PM CDT
Nautical Twilight 6:25 AM CDT 7:23 PM CDT
Astronomical Twilight 5:50 AM CDT 7:58 PM CDT
Moon 9:20 PM CDT (10/18) 12:19 PM CDT (10/18)
Length of Visible Light 11h 47m
Length of Day
10h 46m
Waning Gibbous, 78% of the Moon is Illuminated
Oct 18
Waning Gibbous
Oct 21
Last Quarter
Oct 27
New
Nov 4
First Quarter
Nov 12
Full

Hourly Weather History & Observations

Time (CDT) Temp. Windchill Dew Point Humidity Pressure Visibility Wind Dir Wind Speed Gust Speed Precip Events Conditions
12:15 AM 37.4 °F 34.9 °F 35.6 °F 93% 29.91 in 10.0 mi ESE 3.5 mph - N/A   Clear
12:35 AM 39.2 °F 35.0 °F 35.6 °F 87% 29.91 in 10.0 mi ESE 5.8 mph - N/A   Clear
12:55 AM 37.4 °F 34.9 °F 35.6 °F 93% 29.91 in 10.0 mi ESE 3.5 mph - N/A   Clear
1:15 AM 37.4 °F 33.8 °F 35.6 °F 93% 29.91 in 10.0 mi East 4.6 mph - N/A   Clear
1:16 AM 37.4 °F 33.8 °F 35.6 °F 93% 29.91 in 10.0 mi East 4.6 mph - N/A   Clear
1:35 AM 37.4 °F 34.9 °F 35.6 °F 93% 29.91 in 10.0 mi ESE 3.5 mph - N/A   Clear
1:36 AM 37.4 °F 33.8 °F 35.6 °F 93% 29.91 in 10.0 mi ESE 4.6 mph - N/A   Clear
1:55 AM 37.4 °F 34.9 °F 35.6 °F 93% 29.90 in 10.0 mi ESE 3.5 mph - N/A   Clear
2:15 AM 37.4 °F 34.9 °F 35.6 °F 93% 29.90 in 10.0 mi ESE 3.5 mph - N/A   Clear
2:16 AM 37.4 °F 34.9 °F 35.6 °F 93% 29.90 in 10.0 mi ESE 3.5 mph - N/A   Clear
2:35 AM 37.4 °F 33.8 °F 35.6 °F 93% 29.89 in 10.0 mi ESE 4.6 mph - N/A   Clear
2:36 AM 37.4 °F 33.8 °F 35.6 °F 93% 29.89 in 10.0 mi ESE 4.6 mph - N/A   Clear
2:55 AM 37.4 °F 32.8 °F 35.6 °F 93% 29.88 in 10.0 mi ESE 5.8 mph - N/A   Clear
3:15 AM 37.4 °F 32.8 °F 35.6 °F 93% 29.87 in 10.0 mi ESE 5.8 mph - N/A   Clear
3:16 AM 37.4 °F 33.8 °F 35.6 °F 93% 29.87 in 10.0 mi ESE 4.6 mph - N/A   Clear
3:35 AM 37.4 °F 32.8 °F 35.6 °F 93% 29.87 in 10.0 mi ESE 5.8 mph - N/A   Clear
3:55 AM 37.4 °F 33.8 °F 35.6 °F 93% 29.86 in 10.0 mi ESE 4.6 mph - N/A   Clear
3:56 AM 37.4 °F 34.9 °F 35.6 °F 93% 29.86 in 10.0 mi ESE 3.5 mph - N/A   Clear
4:15 AM 37.4 °F 33.8 °F 35.6 °F 93% 29.86 in 10.0 mi ESE 4.6 mph - N/A   Clear
4:16 AM 37.4 °F 33.8 °F 35.6 °F 93% 29.86 in 10.0 mi ESE 4.6 mph - N/A   Clear
4:35 AM 37.4 °F 32.8 °F 35.6 °F 93% 29.84 in 10.0 mi ESE 5.8 mph - N/A   Clear
4:55 AM 37.4 °F 33.8 °F 35.6 °F 93% 29.84 in 10.0 mi ESE 4.6 mph - N/A   Clear
4:56 AM 37.4 °F 32.8 °F 35.6 °F 93% 29.84 in 10.0 mi ESE 5.8 mph - N/A   Clear
5:15 AM 37.4 °F 32.8 °F 35.6 °F 93% 29.83 in 10.0 mi ESE 5.8 mph - N/A   Clear
5:35 AM 37.4 °F 33.8 °F 35.6 °F 93% 29.84 in 10.0 mi ESE 4.6 mph - N/A   Clear
5:36 AM 37.4 °F 33.8 °F 35.6 °F 93% 29.84 in 10.0 mi ESE 4.6 mph - N/A   Clear
5:55 AM 37.4 °F 32.1 °F 35.6 °F 93% 29.82 in 10.0 mi ESE 6.9 mph - N/A   Clear
5:56 AM 37.4 °F 32.8 °F 35.6 °F 93% 29.82 in 10.0 mi ESE 5.8 mph - N/A   Clear
6:15 AM 37.4 °F 33.8 °F 35.6 °F 93% 29.82 in 10.0 mi ESE 4.6 mph - N/A   Clear
6:16 AM 37.4 °F 32.8 °F 35.6 °F 93% 29.82 in 10.0 mi ESE 5.8 mph - N/A   Clear
6:35 AM 37.4 °F 32.8 °F 35.6 °F 93% 29.81 in 10.0 mi ESE 5.8 mph - N/A   Clear
6:36 AM 37.4 °F 32.8 °F 35.6 °F 93% 29.81 in 10.0 mi ESE 5.8 mph - N/A   Clear
6:55 AM 37.4 °F 32.1 °F 35.6 °F 93% 29.80 in 10.0 mi ESE 6.9 mph - N/A   Clear
7:15 AM 37.4 °F 32.8 °F 35.6 °F 93% 29.80 in 10.0 mi ESE 5.8 mph - N/A   Clear
7:35 AM 37.4 °F 32.8 °F 35.6 °F 93% 29.80 in 10.0 mi ESE 5.8 mph - N/A   Clear
7:36 AM 37.4 °F 33.8 °F 35.6 °F 93% 29.80 in 10.0 mi ESE 4.6 mph - N/A   Clear
7:55 AM 37.4 °F 32.8 °F 35.6 °F 93% 29.79 in 10.0 mi ESE 5.8 mph - N/A   Clear
8:15 AM 39.2 °F 34.2 °F 35.6 °F 87% 29.78 in 10.0 mi ESE 6.9 mph - N/A   Clear
8:16 AM 39.2 °F 35.0 °F 35.6 °F 87% 29.78 in 10.0 mi ESE 5.8 mph - N/A   Clear
8:35 AM 39.2 °F 34.2 °F 35.6 °F 87% 29.78 in 10.0 mi ESE 6.9 mph - N/A   Scattered Clouds
8:55 AM 39.2 °F 33.6 °F 35.6 °F 87% 29.77 in 10.0 mi ESE 8.1 mph - N/A   Clear
9:15 AM 41.0 °F 35.2 °F 35.6 °F 81% 29.76 in 10.0 mi ESE 9.2 mph - N/A   Clear
9:16 AM 41.0 °F 35.8 °F 35.6 °F 81% 29.76 in 10.0 mi ESE 8.1 mph - N/A   Clear
9:35 AM 42.8 °F 38.6 °F 35.6 °F 76% 29.76 in 10.0 mi ESE 6.9 mph - N/A   Clear
9:55 AM 42.8 °F 38.0 °F 37.4 °F 81% 29.75 in 10.0 mi ESE 8.1 mph - N/A   Clear
9:56 AM 42.8 °F 37.5 °F 37.4 °F 81% 29.75 in 10.0 mi ESE 9.2 mph - N/A   Clear
10:15 AM 44.6 °F 39.7 °F 37.4 °F 76% 29.73 in 10.0 mi SE 9.2 mph 16.1 mph N/A   Clear
10:35 AM 46.4 °F 41.9 °F 37.4 °F 71% 29.73 in 10.0 mi SE 9.2 mph - N/A   Clear
10:55 AM 50.0 °F - 37.4 °F 62% 29.72 in 10.0 mi SE 13.8 mph 18.4 mph N/A   Clear
11:15 AM 51.8 °F - 37.4 °F 58% 29.70 in 10.0 mi SE 12.7 mph 18.4 mph N/A   Clear
11:16 AM 51.8 °F - 37.4 °F 58% 29.70 in 10.0 mi SE 11.5 mph 18.4 mph N/A   Clear
11:35 AM 53.6 °F - 37.4 °F 54% 29.69 in 10.0 mi SE 11.5 mph 18.4 mph N/A   Clear
11:55 AM 55.4 °F - 37.4 °F 51% 29.68 in 10.0 mi SE 11.5 mph 19.6 mph N/A   Clear
11:56 AM 55.4 °F - 37.4 °F 51% 29.68 in 10.0 mi SSE 10.4 mph 19.6 mph N/A   Clear
12:15 PM 55.4 °F - 37.4 °F 51% 29.68 in 10.0 mi ESE 13.8 mph 21.9 mph N/A   Clear
12:16 PM 55.4 °F - 37.4 °F 51% 29.67 in 10.0 mi SE 13.8 mph 21.9 mph N/A   Clear
12:35 PM 57.2 °F - 39.2 °F 51% 29.67 in 10.0 mi SE 11.5 mph 19.6 mph N/A   Clear
12:55 PM 59.0 °F - 39.2 °F 48% 29.65 in 10.0 mi SE 9.2 mph 20.7 mph N/A   Clear
1:15 PM 60.8 °F - 39.2 °F 45% 29.64 in 10.0 mi SSE 11.5 mph 18.4 mph N/A   Clear
1:16 PM 60.8 °F - 39.2 °F 45% 29.64 in 10.0 mi SSE 12.7 mph 18.4 mph N/A   Clear
1:35 PM 62.6 °F - 39.2 °F 42% 29.64 in 10.0 mi SE 11.5 mph 18.4 mph N/A   Clear
1:55 PM 62.6 °F - 39.2 °F 42% 29.63 in 10.0 mi SE 10.4 mph 19.6 mph N/A   Clear
2:15 PM 60.8 °F - 37.4 °F 42% 29.61 in 10.0 mi SE 11.5 mph 19.6 mph N/A   Clear
2:35 PM 62.6 °F - 39.2 °F 42% 29.60 in 10.0 mi SE 11.5 mph 19.6 mph N/A   Clear
2:55 PM 62.6 °F - 37.4 °F 39% 29.59 in 10.0 mi ESE 13.8 mph 21.9 mph N/A   Clear
3:15 PM 62.6 °F - 37.4 °F 39% 29.59 in 10.0 mi ESE 15.0 mph 21.9 mph N/A   Clear
3:35 PM 62.6 °F - 37.4 °F 39% 29.58 in 10.0 mi ESE 13.8 mph 24.2 mph N/A   Clear
3:36 PM 62.6 °F - 37.4 °F 39% 29.58 in 10.0 mi SE 11.5 mph 24.2 mph N/A   Clear
3:55 PM 62.6 °F - 37.4 °F 39% 29.58 in 10.0 mi SE 11.5 mph 19.6 mph N/A   Clear
4:15 PM 62.6 °F - 37.4 °F 39% 29.58 in 10.0 mi SE 12.7 mph 20.7 mph N/A   Clear
4:16 PM 62.6 °F - 37.4 °F 39% 29.58 in 10.0 mi SE 10.4 mph 20.7 mph N/A   Clear
4:35 PM 60.8 °F - 37.4 °F 42% 29.57 in 10.0 mi SE 12.7 mph 20.7 mph N/A   Clear
4:36 PM 60.8 °F - 37.4 °F 42% 29.57 in 10.0 mi SE 12.7 mph 20.7 mph N/A   Clear
4:55 PM 60.8 °F - 37.4 °F 42% 29.57 in 10.0 mi SE 10.4 mph 21.9 mph N/A   Clear
5:15 PM 60.8 °F - 37.4 °F 42% 29.57 in 10.0 mi SE 11.5 mph 18.4 mph N/A   Clear
5:16 PM 60.8 °F - 37.4 °F 42% 29.57 in 10.0 mi SE 12.7 mph 18.4 mph N/A   Clear
5:35 PM 60.8 °F - 37.4 °F 42% 29.57 in 10.0 mi SE 10.4 mph 20.7 mph N/A   Clear
5:55 PM 60.8 °F - 37.4 °F 42% 29.56 in 10.0 mi SE 10.4 mph 18.4 mph N/A   Clear
6:15 PM 60.8 °F - 37.4 °F 42% 29.57 in 10.0 mi SE 6.9 mph 17.3 mph N/A   Scattered Clouds
6:16 PM 60.8 °F - 37.4 °F 42% 29.56 in 10.0 mi SE 9.2 mph 17.3 mph N/A   Scattered Clouds
6:35 PM 59.0 °F - 37.4 °F 45% 29.58 in 10.0 mi SSE 8.1 mph - N/A   Scattered Clouds
6:55 PM 57.2 °F - 37.4 °F 48% 29.59 in 10.0 mi SE 6.9 mph - N/A   Clear
6:56 PM 57.2 °F - 37.4 °F 48% 29.59 in 10.0 mi SE 6.9 mph - N/A   Clear
7:15 PM 57.2 °F - 37.4 °F 48% 29.59 in 10.0 mi SE 8.1 mph - N/A   Scattered Clouds
7:35 PM 57.2 °F - 39.2 °F 51% 29.60 in 10.0 mi SE 5.8 mph 16.1 mph N/A   Scattered Clouds
7:55 PM 57.2 °F - 39.2 °F 51% 29.60 in 10.0 mi SE 6.9 mph - N/A   Scattered Clouds
7:56 PM 57.2 °F - 39.2 °F 51% 29.60 in 10.0 mi SE 8.1 mph - N/A   Scattered Clouds
8:15 PM 57.2 °F - 39.2 °F 51% 29.60 in 10.0 mi SE 8.1 mph - N/A   Overcast
8:35 PM 57.2 °F - 39.2 °F 51% 29.59 in 10.0 mi SE 6.9 mph 16.1 mph N/A   Mostly Cloudy
8:36 PM 57.2 °F - 39.2 °F 51% 29.59 in 10.0 mi SE 8.1 mph 16.1 mph N/A   Mostly Cloudy
8:55 PM 57.2 °F - 39.2 °F 51% 29.59 in 10.0 mi SE 6.9 mph 18.4 mph N/A   Mostly Cloudy
9:15 PM 55.4 °F - 39.2 °F 54% 29.58 in 10.0 mi SE 9.2 mph - N/A   Scattered Clouds
9:16 PM 55.4 °F - 39.2 °F 54% 29.58 in 10.0 mi SE 8.1 mph - N/A   Scattered Clouds
9:35 PM 55.4 °F - 39.2 °F 54% 29.58 in 10.0 mi SE 10.4 mph 16.1 mph N/A   Mostly Cloudy
9:36 PM 55.4 °F - 39.2 °F 54% 29.58 in 10.0 mi SE 9.2 mph 16.1 mph N/A   Mostly Cloudy
9:55 PM 55.4 °F - 39.2 °F 54% 29.58 in 10.0 mi SE 9.2 mph 16.1 mph N/A   Overcast
10:35 PM 57.2 °F - 39.2 °F 51% 29.57 in 10.0 mi SE 8.1 mph - N/A   Overcast
10:55 PM 57.2 °F - 39.2 °F 51% 29.57 in 10.0 mi SSE 8.1 mph - N/A   Overcast
10:56 PM 57.2 °F - 39.2 °F 51% 29.57 in 10.0 mi SSE 8.1 mph - N/A   Overcast
11:15 PM 57.2 °F - 39.2 °F 51% 29.56 in 10.0 mi SSE 10.4 mph 18.4 mph N/A   Overcast
11:16 PM 57.2 °F - 39.2 °F 51% 29.57 in 10.0 mi South 10.4 mph 18.4 mph N/A   Overcast
11:35 PM 57.2 °F - 39.2 °F 51% 29.56 in 10.0 mi SSE 10.4 mph 16.1 mph N/A   Overcast
11:55 PM 57.2 °F - 39.2 °F 51% 29.56 in 10.0 mi SSE 11.5 mph - N/A   Overcast